| time (UTC) | temp C | wind direction | speed KPH | gust KPH | rain 1hr cm | rain 24hr cm | rain mn cm | humidity % | barometer mb |
| 20260505040306 | 12 | 142 | 12.9 | 30.6 | 0.00 | 0.00 | 0.00 | 58 | 1012.1 |
| 20260505035806 | 12 | 195 | 12.9 | 25.7 | 0.00 | 0.00 | 0.00 | 58 | 1012.1 |
| 20260505035305 | 12 | 220 | 11.3 | 22.5 | 0.00 | 0.00 | 0.00 | 58 | 1012.0 |
| 20260505034811 | 12 | 152 | 12.9 | 30.6 | 0.00 | 0.00 | 0.00 | 57 | 1012.1 |
| 20260505034529 | 12 | 114 | 12.9 | 30.6 | 0.00 | 0.00 | 0.00 | 58 | 1012.2 |
| 20260505033807 | 12 | 65 | 11.3 | 22.5 | 0.00 | 0.00 | 0.00 | 58 | 1012.1 |
| 20260505033307 | 12 | 170 | 12.9 | 30.6 | 0.00 | 0.00 | 0.00 | 58 | 1012.1 |
| 20260505032805 | 12 | 203 | 14.5 | 30.6 | 0.00 | 0.00 | 0.00 | 58 | 1012.1 |
| 20260505032525 | 12 | 88 | 14.5 | 30.6 | 0.00 | 0.00 | 0.00 | 58 | 1012.2 |
| 20260505031805 | 12 | 82 | 14.5 | 30.6 | 0.00 | 0.00 | 0.00 | 58 | 1012.2 |
| 20260505031306 | 12 | 192 | 12.9 | 29.0 | 0.00 | 0.00 | 0.00 | 57 | 1012.2 |
| 20260505030804 | 12 | 94 | 14.5 | 29.0 | 0.00 | 0.00 | 0.00 | 58 | 1012.3 |
| 20260505030303 | 12 | 196 | 14.5 | 33.8 | 0.00 | 0.00 | 0.00 | 57 | 1012.3 |
| 20260505025804 | 12 | 177 | 11.3 | 33.8 | 0.00 | 0.00 | 0.00 | 58 | 1012.2 |
| 20260505025527 | 12 | 140 | 12.9 | 25.7 | 0.00 | 0.00 | 0.00 | 58 | 1012.4 |
| 20260505024801 | 12 | 128 | 14.5 | 25.7 | 0.00 | 0.00 | 0.00 | 58 | 1012.4 |
| 20260505024301 | 12 | 157 | 12.9 | 22.5 | 0.00 | 0.00 | 0.00 | 58 | 1012.4 |
| 20260505024022 | 12 | 150 | 12.9 | 25.7 | 0.00 | 0.00 | 0.00 | 57 | 1012.7 |
| 20260505023531 | 12 | 165 | 14.5 | 25.7 | 0.00 | 0.00 | 0.00 | 57 | 1012.7 |
| 20260505022801 | 12 | 171 | 14.5 | 24.1 | 0.00 | 0.00 | 0.00 | 58 | 1012.8 |
| 20260505022301 | 12 | 150 | 14.5 | 37.0 | 0.00 | 0.00 | 0.00 | 58 | 1012.9 |
| 20260505021755 | 12 | 180 | 16.1 | 37.0 | 0.00 | 0.00 | 0.00 | 58 | 1012.9 |
| 20260505021248 | 12 | 147 | 14.5 | 25.7 | 0.00 | 0.00 | 0.00 | 58 | 1012.9 |
| 20260505020748 | 12 | 78 | 11.3 | 24.1 | 0.00 | 0.00 | 0.00 | 58 | 1013.1 |
| 20260505020237 | 12 | 153 | 12.9 | 29.0 | 0.00 | 0.00 | 0.00 | 59 | 1013.0 |
| 20260505015744 | 12 | 176 | 12.9 | 29.0 | 0.00 | 0.00 | 0.00 | 59 | 1013.1 |
| 20260505015235 | 12 | 191 | 14.5 | 25.7 | 0.00 | 0.00 | 0.00 | 59 | 1013.1 |
| 20260505014746 | 12 | 187 | 16.1 | 32.2 | 0.00 | 0.00 | 0.00 | 59 | 1013.1 |
| 20260505014236 | 12 | 146 | 16.1 | 32.2 | 0.00 | 0.00 | 0.00 | 59 | 1013.1 |
| 20260505013747 | 12 | 160 | 14.5 | 32.2 | 0.00 | 0.00 | 0.00 | 58 | 1013.3 |
| 20260505013233 | 13 | 166 | 16.1 | 32.2 | 0.00 | 0.00 | 0.00 | 58 | 1013.1 |
| 20260505012735 | 13 | 144 | 16.1 | 33.8 | 0.00 | 0.00 | 0.00 | 58 | 1013.0 |
| 20260505012231 | 13 | 148 | 14.5 | 33.8 | 0.00 | 0.00 | 0.00 | 58 | 1013.0 |
| 20260505011737 | 13 | 161 | 14.5 | 30.6 | 0.00 | 0.00 | 0.00 | 57 | 1013.1 |
| 20260505011231 | 13 | 98 | 14.5 | 29.0 | 0.00 | 0.00 | 0.00 | 54 | 1013.1 |
| 20260505010733 | 13 | 150 | 14.5 | 29.0 | 0.00 | 0.00 | 0.00 | 55 | 1013.0 |
| 20260505010243 | 13 | 126 | 16.1 | 40.2 | 0.00 | 0.00 | 0.00 | 55 | 1013.0 |
| 20260505005736 | 13 | 148 | 17.7 | 40.2 | 0.00 | 0.00 | 0.00 | 54 | 1013.0 |
| 20260505005231 | 13 | 171 | 16.1 | 33.8 | 0.00 | 0.00 | 0.00 | 54 | 1012.9 |
| 20260505004737 | 13 | 139 | 12.9 | 29.0 | 0.00 | 0.00 | 0.00 | 54 | 1012.9 |
| 20260505004230 | 13 | 145 | 11.3 | 20.9 | 0.00 | 0.00 | 0.00 | 53 | 1012.9 |
| 20260505003734 | 13 | 169 | 11.3 | 20.9 | 0.00 | 0.00 | 0.00 | 52 | 1013.1 |
| 20260505003233 | 13 | 208 | 11.3 | 20.9 | 0.00 | 0.00 | 0.00 | 51 | 1013.0 |
| 20260505002954 | 13 | 144 | 11.3 | 30.6 | 0.00 | 0.00 | 0.00 | 52 | 1013.2 |
| 20260505002220 | 13 | 186 | 11.3 | 30.6 | 0.00 | 0.00 | 0.00 | 51 | 1013.1 |
| 20260505001948 | 14 | 152 | 11.3 | 20.9 | 0.00 | 0.00 | 0.00 | 50 | 1013.1 |
| 20260505001209 | 13 | 192 | 11.3 | 20.9 | 0.00 | 0.00 | 0.00 | 50 | 1013.2 |
| 20260505000709 | 13 | 172 | 11.3 | 19.3 | 0.00 | 0.00 | 0.00 | 51 | 1013.2 |
| 20260505000211 | 13 | 213 | 11.3 | 20.9 | 0.00 | 0.00 | 0.00 | 52 | 1013.3 |
| 20260504235709 | 13 | 163 | 11.3 | 22.5 | 0.00 | 0.00 | 0.00 | 52 | 1013.5 |
| 20260504235209 | 13 | 170 | 11.3 | 29.0 | 0.00 | 0.00 | 0.00 | 52 | 1013.5 |
| 20260504234709 | 13 | 126 | 11.3 | 29.0 | 0.00 | 0.00 | 0.00 | 51 | 1013.5 |
| 20260504234209 | 13 | 163 | 8.0 | 25.7 | 0.00 | 0.00 | 0.00 | 50 | 1013.6 |
| 20260504233709 | 13 | 138 | 8.0 | 17.7 | 0.00 | 0.00 | 0.00 | 50 | 1013.6 |
| 20260504233209 | 13 | 173 | 11.3 | 17.7 | 0.00 | 0.00 | 0.00 | 50 | 1013.6 |
| 20260504232717 | 13 | 161 | 8.0 | 17.7 | 0.00 | 0.00 | 0.00 | 49 | 1013.6 |
| 20260504232438 | 13 | 173 | 6.4 | 16.1 | 0.00 | 0.00 | 0.00 | 50 | 1013.6 |
| 20260504231709 | 13 | 144 | 6.4 | 16.1 | 0.00 | 0.00 | 0.00 | 49 | 1013.7 |
| 20260504231209 | 13 | 194 | 8.0 | 20.9 | 0.00 | 0.00 | 0.00 | 50 | 1013.7 |
| 20260504230709 | 13 | 171 | 6.4 | 20.9 | 0.00 | 0.00 | 0.00 | 53 | 1013.8 |
| 20260504230702 | 13 | 193 | 6.4 | 14.5 | 0.00 | 0.00 | 0.00 | 53 | 1014.0 |
| 20260504230658 | 12 | 196 | 4.8 | 12.9 | 0.00 | 0.00 | 0.00 | 56 | 1013.9 |
| 20260504230654 | 13 | 151 | 6.4 | 14.5 | 0.00 | 0.00 | 0.00 | 52 | 1014.0 |
| 20260504224705 | 13 | 150 | 6.4 | 14.5 | 0.00 | 0.00 | 0.00 | 54 | 1013.9 |
| 20260504224205 | 14 | 146 | 8.0 | 17.7 | 0.00 | 0.00 | 0.00 | 52 | 1014.1 |
| 20260504223705 | 15 | 149 | 11.3 | 17.7 | 0.00 | 0.00 | 0.00 | 49 | 1014.2 |
| 20260504223656 | 14 | 132 | 11.3 | 19.3 | 0.00 | 0.00 | 0.00 | 49 | 1014.4 |
| 20260504222705 | 14 | 140 | 11.3 | 20.9 | 0.00 | 0.00 | 0.00 | 51 | 1014.4 |
| 20260504222205 | 14 | 121 | 12.9 | 22.5 | 0.00 | 0.00 | 0.00 | 52 | 1014.5 |
| 20260504221705 | 14 | 150 | 11.3 | 22.5 | 0.00 | 0.00 | 0.00 | 51 | 1014.5 |
| 20260504221205 | 14 | 140 | 11.3 | 25.7 | 0.00 | 0.00 | 0.00 | 53 | 1014.5 |
| 20260504220705 | 14 | 169 | 8.0 | 25.7 | 0.00 | 0.00 | 0.00 | 52 | 1014.5 |
| 20260504220429 | 14 | 180 | 8.0 | 17.7 | 0.00 | 0.00 | 0.00 | 53 | 1014.6 |
| 20260504215706 | 14 | 157 | 11.3 | 19.3 | 0.00 | 0.00 | 0.00 | 52 | 1014.6 |
| 20260504215205 | 14 | 142 | 12.9 | 20.9 | 0.00 | 0.00 | 0.00 | 53 | 1014.7 |
| 20260504214704 | 14 | 158 | 14.5 | 22.5 | 0.00 | 0.00 | 0.00 | 53 | 1014.7 |
| 20260504214202 | 13 | 148 | 11.3 | 22.5 | 0.00 | 0.00 | 0.00 | 54 | 1014.8 |
| 20260504214152 | 13 | 124 | 8.0 | 17.7 | 0.00 | 0.00 | 0.00 | 57 | 1014.8 |
| 20260504213202 | 13 | 165 | 6.4 | 17.7 | 0.00 | 0.00 | 0.00 | 59 | 1015.0 |
| 20260504212702 | 12 | 159 | 4.8 | 14.5 | 0.00 | 0.00 | 0.00 | 59 | 1015.0 |
| 20260504212203 | 12 | 153 | 6.4 | 14.5 | 0.00 | 0.00 | 0.00 | 61 | 1015.0 |
| 20260504211702 | 12 | 174 | 6.4 | 14.5 | 0.00 | 0.00 | 0.00 | 59 | 1015.0 |
| 20260504211202 | 12 | 205 | 6.4 | 16.1 | 0.00 | 0.00 | 0.00 | 61 | 1015.0 |
| 20260504210702 | 12 | 130 | 6.4 | 16.1 | 0.00 | 0.00 | 0.00 | 61 | 1015.1 |
| 20260504210423 | 12 | 139 | 4.8 | 12.9 | 0.00 | 0.00 | 0.00 | 60 | 1015.3 |
| 20260504205702 | 12 | 156 | 4.8 | 11.3 | 0.00 | 0.00 | 0.00 | 60 | 1015.1 |
| 20260504205203 | 13 | 121 | 6.4 | 14.5 | 0.00 | 0.00 | 0.00 | 57 | 1015.1 |
| 20260504204925 | 13 | 133 | 6.4 | 14.5 | 0.00 | 0.00 | 0.00 | 57 | 1015.3 |
| 20260504204204 | 14 | 150 | 6.4 | 17.7 | 0.00 | 0.00 | 0.00 | 54 | 1015.4 |
| 20260504203704 | 14 | 171 | 11.3 | 20.9 | 0.00 | 0.00 | 0.00 | 53 | 1015.3 |
| 20260504203425 | 14 | 133 | 11.3 | 20.9 | 0.00 | 0.00 | 0.00 | 52 | 1015.1 |
| 20260504202704 | 14 | 146 | 6.4 | 16.1 | 0.00 | 0.00 | 0.00 | 52 | 1015.1 |
| 20260504202203 | 14 | 133 | 6.4 | 16.1 | 0.00 | 0.00 | 0.00 | 52 | 1015.1 |
| 20260504201701 | 14 | 124 | 6.4 | 17.7 | 0.00 | 0.00 | 0.00 | 51 | 1015.0 |
| 20260504201205 | 15 | 157 | 6.4 | 19.3 | 0.00 | 0.00 | 0.00 | 51 | 1014.9 |
| 20260504200701 | 15 | 134 | 8.0 | 19.3 | 0.00 | 0.00 | 0.00 | 50 | 1015.0 |
| 20260504200435 | 15 | 140 | 6.4 | 14.5 | 0.00 | 0.00 | 0.00 | 51 | 1014.9 |
| 20260504195927 | 15 | 136 | 8.0 | 16.1 | 0.00 | 0.00 | 0.00 | 51 | 1014.8 |
| 20260504195201 | 15 | 165 | 8.0 | 16.1 | 0.00 | 0.00 | 0.00 | 51 | 1014.8 |
| 20260504194701 | 15 | 166 | 11.3 | 19.3 | 0.00 | 0.00 | 0.00 | 51 | 1014.9 |
| 20260504194425 | 15 | 146 | 11.3 | 19.3 | 0.00 | 0.00 | 0.00 | 51 | 1014.8 |
| 20260504193702 | 15 | 148 | 11.3 | 19.3 | 0.00 | 0.00 | 0.00 | 50 | 1014.9 |
| 20260504193427 | 15 | 146 | 8.0 | 17.7 | 0.00 | 0.00 | 0.00 | 50 | 1014.8 |
| 20260504192701 | 15 | 164 | 6.4 | 16.1 | 0.00 | 0.00 | 0.00 | 52 | 1014.9 |
| 20260504192201 | 15 | 156 | 8.0 | 19.3 | 0.00 | 0.00 | 0.00 | 50 | 1014.8 |
| 20260504191927 | 15 | 130 | 8.0 | 19.3 | 0.00 | 0.00 | 0.00 | 50 | 1014.8 |
| 20260504191202 | 15 | 146 | 8.0 | 16.1 | 0.00 | 0.00 | 0.00 | 52 | 1014.8 |
| 20260504190701 | 15 | 164 | 6.4 | 16.1 | 0.00 | 0.00 | 0.00 | 51 | 1014.7 |
| 20260504190201 | 15 | 164 | 8.0 | 19.3 | 0.00 | 0.00 | 0.00 | 53 | 1014.7 |
| 20260504185702 | 15 | 160 | 11.3 | 19.3 | 0.00 | 0.00 | 0.00 | 49 | 1014.7 |
| 20260504185201 | 15 | 131 | 8.0 | 16.1 | 0.00 | 0.00 | 0.00 | 50 | 1014.7 |
| 20260504184702 | 15 | 147 | 11.3 | 20.9 | 0.00 | 0.00 | 0.00 | 49 | 1014.6 |
| 20260504184651 | 15 | 175 | 11.3 | 20.9 | 0.00 | 0.00 | 0.00 | 47 | 1014.6 |
| 20260504183701 | 15 | 146 | 11.3 | 20.9 | 0.00 | 0.00 | 0.00 | 47 | 1014.5 |
| 20260504183201 | 15 | 142 | 11.3 | 20.9 | 0.00 | 0.00 | 0.00 | 47 | 1014.6 |
| 20260504182701 | 15 | 128 | 8.0 | 17.7 | 0.00 | 0.00 | 0.00 | 48 | 1014.5 |
| 20260504182201 | 15 | 150 | 11.3 | 17.7 | 0.00 | 0.00 | 0.00 | 49 | 1014.5 |
| 20260504181701 | 15 | 161 | 8.0 | 17.7 | 0.00 | 0.00 | 0.00 | 49 | 1014.5 |
| 20260504181201 | 15 | 179 | 6.4 | 14.5 | 0.00 | 0.00 | 0.00 | 50 | 1014.5 |
| 20260504180701 | 15 | 159 | 6.4 | 14.5 | 0.00 | 0.00 | 0.00 | 48 | 1014.5 |
| 20260504180202 | 15 | 150 | 8.0 | 14.5 | 0.00 | 0.00 | 0.00 | 50 | 1014.4 |
| 20260504175701 | 16 | 152 | 8.0 | 16.1 | 0.00 | 0.00 | 0.00 | 47 | 1014.4 |
| 20260504175202 | 16 | 178 | 8.0 | 16.1 | 0.00 | 0.00 | 0.00 | 48 | 1014.4 |
| 20260504174701 | 16 | 153 | 11.3 | 17.7 | 0.00 | 0.00 | 0.00 | 45 | 1014.4 |
| 20260504174201 | 16 | 106 | 12.9 | 24.1 | 0.00 | 0.00 | 0.00 | 45 | 1014.2 |
| 20260504173700 | 16 | 154 | 12.9 | 24.1 | 0.00 | 0.00 | 0.00 | 44 | 1014.1 |
| 20260504173204 | 16 | 141 | 11.3 | 22.5 | 0.00 | 0.00 | 0.00 | 43 | 1014.4 |
| 20260504172927 | 17 | 152 | 8.0 | 20.9 | 0.00 | 0.00 | 0.00 | 44 | 1014.2 |
| 20260504172420 | 17 | 142 | 8.0 | 19.3 | 0.00 | 0.00 | 0.00 | 42 | 1014.1 |
| 20260504171649 | 16 | 53 | 8.0 | 19.3 | 0.00 | 0.00 | 0.00 | 43 | 1014.4 |
| 20260504171142 | 17 | 154 | 8.0 | 17.7 | 0.00 | 0.00 | 0.00 | 43 | 1014.4 |
| 20260504170634 | 16 | 137 | 8.0 | 16.1 | 0.00 | 0.00 | 0.00 | 45 | 1014.2 |
| 20260504170135 | 16 | 142 | 11.3 | 17.7 | 0.00 | 0.00 | 0.00 | 46 | 1014.4 |
| 20260504160132 | 17 | 159 | 11.3 | 22.5 | 0.00 | 0.00 | 0.00 | 42 | 1014.1 |
| 20260504151131 | 18 | 132 | 12.9 | 22.5 | 0.00 | 0.00 | 0.00 | 37 | 1014.1 |
| 20260504150629 | 18 | 128 | 12.9 | 24.1 | 0.00 | 0.00 | 0.00 | 37 | 1014.4 |
| 20260504150129 | 18 | 115 | 11.3 | 24.1 | 0.00 | 0.00 | 0.00 | 36 | 1014.1 |
| 20260504140620 | 19 | 173 | 11.3 | 29.0 | 0.00 | 0.00 | 0.00 | 33 | 1014.1 |
| 20260504140117 | 19 | 115 | 11.3 | 29.0 | 0.00 | 0.00 | 0.00 | 32 | 1014.2 |
| 20260504130617 | 20 | 199 | 8.0 | 22.5 | 0.00 | 0.00 | 0.00 | 32 | 1014.4 |
| 20260504130117 | 20 | 192 | 11.3 | 22.5 | 0.00 | 0.00 | 0.00 | 32 | 1014.5 |
| 20260504120136 | 20 | 81 | 11.3 | 24.1 | 0.00 | 0.00 | 0.00 | 34 | 1014.8 |
| 20260504120132 | 20 | 177 | 12.9 | 24.1 | 0.00 | 0.00 | 0.00 | 34 | 1014.8 |
| 20260504110609 | 20 | 229 | 12.9 | 30.6 | 0.00 | 0.00 | 0.00 | 34 | 1015.4 |
| 20260504110109 | 20 | 161 | 12.9 | 35.4 | 0.00 | 0.00 | 0.00 | 35 | 1015.4 |
| 20260504100603 | 20 | 200 | 11.3 | 22.5 | 0.00 | 0.00 | 0.00 | 34 | 1015.7 |
| 20260504100108 | 19 | 201 | 8.0 | 20.9 | 0.00 | 0.00 | 0.00 | 33 | 1015.8 |
| 20260504081531 | 18 | 205 | 8.0 | 25.7 | 0.00 | 0.00 | 0.00 | 39 | 1016.3 |
| 20260504081030 | 17 | 213 | 4.8 | 25.7 | 0.00 | 0.00 | 0.00 | 41 | 1016.4 |
| 20260504080525 | 17 | 300 | 3.2 | 6.4 | 0.00 | 0.00 | 0.00 | 45 | 1016.4 |
| 20260504050451 | 7 | 150 | 0.0 | 3.2 | 0.00 | 0.00 | 0.00 | 78 | 1016.5 |
| 20260504045951 | 7 | 150 | 0.0 | 0.0 | 0.00 | 0.00 | 0.00 | 78 | 1016.5 |
| 20260504045720 | 7 | 150 | 0.0 | 0.0 | 0.00 | 0.00 | 0.00 | 79 | 1016.6 |
| 20260504045218 | 7 | 150 | 0.0 | 0.0 | 0.00 | 0.00 | 0.00 | 78 | 1016.6 |
| 20260504044449 | 7 | 150 | 0.0 | 3.2 | 0.00 | 0.00 | 0.00 | 76 | 1016.7 |
| 20260504043950 | 6 | 150 | 0.0 | 3.2 | 0.00 | 0.00 | 0.00 | 78 | 1016.7 |
| 20260504043715 | 6 | 150 | 0.0 | 0.0 | 0.00 | 0.00 | 0.00 | 78 | 1016.6 |
| 20260504042950 | 6 | 150 | 0.0 | 0.0 | 0.00 | 0.00 | 0.00 | 77 | 1016.7 |
| 20260504042449 | 6 | 150 | 0.0 | 0.0 | 0.00 | 0.00 | 0.00 | 78 | 1016.7 |
| 20260504041950 | 6 | 150 | 0.0 | 3.2 | 0.00 | 0.00 | 0.00 | 79 | 1016.6 |
| 20260504041935 | 6 | 150 | 0.0 | 3.2 | 0.00 | 0.00 | 0.00 | 78 | 1016.7 |
| 20260504041216 | 6 | 150 | 1.6 | 4.8 | 0.00 | 0.00 | 0.00 | 76 | 1016.6 |
| 20260504040448 | 7 | 150 | 1.6 | 4.8 | 0.00 | 0.00 | 0.00 | 74 | 1016.5 |